Waarnemingen

Advertentie
Mijn weer
Westdorpe aws, Nederland (6319): temperatuur & dauwpunt: 19.05.2018 13:00:00 - 25.05.2018 13:00:00 (CEST)Westdorpe aws, Nederland (6319): temperatuur 5cm: 19.05.2018 13:00:00 - 25.05.2018 13:00:00 (CEST)Westdorpe aws, Nederland (6319): windsnelheid & windstoten: 19.05.2018 13:00:00 - 25.05.2018 13:00:00 (CEST)Westdorpe aws, Nederland (6319): windrichting: 19.05.2018 13:00:00 - 25.05.2018 13:00:00 (CEST)Westdorpe aws, Nederland (6319): luchtdruk: 19.05.2018 13:00:00 - 25.05.2018 13:00:00 (CEST)Westdorpe aws, Nederland (6319): zicht: 19.05.2018 13:00:00 - 25.05.2018 13:00:00 (CEST)Westdorpe aws, Nederland (6319): neerslag: 19.05.2018 13:00:00 - 25.05.2018 13:00:00 (CEST)
Datum & Tijd tt [°C] td [°C] tt 5cm [°C] ff [km/u] ff [kn] fx [km/u] fx [kn] dd ppp [hPa] vv [km] rr [mm]
25.05.2018 13:00:00 - - - - - - - - - - -
25.05.2018 12:00:00 21,1 14,6 23,6 4 2 7 4 ZZW 1018,1 14 0,0
25.05.2018 11:00:00 19,1 16,2 20,4 4 2 11 6 W 1017,9 6 0,0
25.05.2018 10:00:00 17,9 15,8 19,9 7 4 14 8 W 1017,9 4,7 0,0
25.05.2018 09:00:00 16,9 14,6 18,1 7 4 14 8 ZZW 1017,7 9 0,0
25.05.2018 08:00:00 15,2 14,2 15,8 7 4 11 6 Z 1017,4 6 0,0
25.05.2018 07:00:00 13,8 13,5 13,6 4 2 11 6 ZZO 1017,2 3,9 0,0
25.05.2018 06:00:00 13,3 13,1 12,5 7 4 14 8 ZZO 1016,9 3,6 0,0
25.05.2018 05:00:00 13,7 13,6 13,0 7 4 11 6 ZO 1016,5 1,2 0,0
25.05.2018 04:00:00 14,4 14,2 13,9 11 6 14 8 ZO 1016,3 0,1 0,0
25.05.2018 03:00:00 14,6 14,5 11,9 4 2 11 6 ZO 1016,4 0,2 0,0
25.05.2018 02:00:00 14,8 14,7 13,5 7 4 11 6 ZO 1016,7 0,9 0,0
25.05.2018 01:00:00 15,1 14,9 14,2 7 4 11 6 NNO 1016,4 0,8 0,1
25.05.2018 00:00:00 15,9 15,3 15,0 4 2 7 4 W 1017,1 2,3 0,0
24.05.2018 23:00:00 16,1 15,6 15,8 4 2 14 8 NO 1016,9 4,9 0,0
24.05.2018 22:00:00 16,0 15,5 15,5 4 2 7 4 N 1016,4 8 0,0
24.05.2018 21:00:00 16,7 15,8 16,3 4 2 14 8 WNW 1016,2 12 0,2
24.05.2018 20:00:00 16,2 15,0 15,7 7 4 29 16 ZW 1016,6 13 4,3
24.05.2018 19:00:00 20,9 15,7 20,1 11 6 18 10 O 1016,0 19 0,0
24.05.2018 18:00:00 21,4 16,1 21,0 11 6 22 12 ONO 1015,9 16 0,0
24.05.2018 17:00:00 22,0 15,9 22,2 14 8 29 16 ONO 1015,8 17 0,0
24.05.2018 16:00:00 22,0 16,2 22,3 18 10 25 14 NO 1016,5 20 0,0
24.05.2018 15:00:00 22,7 15,2 24,0 14 8 29 16 ONO 1016,9 27 0,0
24.05.2018 14:00:00 22,2 14,7 23,8 18 10 29 16 ONO 1017,4 24 0,0
24.05.2018 13:00:00 22,5 14,4 24,1 18 10 32 18 O 1017,7 25 0,0
24.05.2018 12:00:00 21,9 15,1 23,3 18 10 25 14 NO 1018,3 26 0,0
24.05.2018 11:00:00 19,7 13,7 20,3 11 6 18 10 NO 1018,8 26 0,0
24.05.2018 10:00:00 18,9 13,3 20,4 11 6 18 10 NO 1019,2 26 0,0
24.05.2018 09:00:00 17,8 11,7 18,4 14 8 25 14 ONO 1019,2 27 0,0
24.05.2018 08:00:00 15,6 12,5 15,1 11 6 14 8 NO 1019,1 27 0,0
24.05.2018 07:00:00 13,4 11,4 11,9 11 6 14 8 NO 1019,2 22 0,0
24.05.2018 06:00:00 12,3 10,8 10,5 11 6 14 8 NO 1019,3 16 0,0
24.05.2018 05:00:00 13,4 12,8 9,8 4 2 7 4 NO 1019,5 9 0,0
24.05.2018 04:00:00 14,4 14,0 12,0 4 2 7 4 NNO 1019,7 3,9 0,0
24.05.2018 03:00:00 14,8 14,1 13,5 4 2 11 6 N 1019,9 4,8 0,0
24.05.2018 02:00:00 16,2 14,5 14,6 7 4 18 10 Z 1020,2 8 0,0
24.05.2018 01:00:00 17,4 13,9 15,5 11 6 22 12 OZO 1020,4 19 0,0
24.05.2018 00:00:00 17,1 15,5 16,3 11 6 11 6 NO 1019,9 8 0,0
23.05.2018 23:00:00 17,2 16,0 16,6 7 4 11 6 NO 1019,8 8 0,0
23.05.2018 22:00:00 17,6 16,1 16,9 7 4 18 10 ONO 1019,7 10 0,3
23.05.2018 21:00:00 19,0 15,8 18,0 11 6 22 12 ONO 1019,4 6 1,3
23.05.2018 20:00:00 21,2 14,9 20,6 14 8 25 14 NO 1019,0 17 0,0
23.05.2018 19:00:00 22,3 14,4 22,1 14 8 25 14 ONO 1018,6 24 0,0
23.05.2018 18:00:00 21,7 14,5 21,6 18 10 36 19 ONO 1018,8 20 0,0
23.05.2018 17:00:00 22,0 15,7 23,0 22 12 32 18 NNO 1019,0 18 0,0
23.05.2018 16:00:00 21,2 16,1 22,4 18 10 29 16 NNO 1019,4 19 0,0
23.05.2018 15:00:00 21,3 16,1 22,8 18 10 29 16 NO 1019,7 18 0,0
23.05.2018 14:00:00 20,0 15,9 21,1 18 10 29 16 NO 1020,0 19 0,0
23.05.2018 13:00:00 19,6 16,4 20,4 18 10 25 14 NO 1020,1 15 0,0
23.05.2018 12:00:00 18,5 16,3 20,1 14 8 22 12 N 1019,9 12 0,0
23.05.2018 11:00:00 16,2 14,9 16,1 11 6 22 12 NNO 1019,9 10 0,1
23.05.2018 10:00:00 15,6 14,9 15,5 7 4 14 8 N 1019,6 6 1,0
23.05.2018 09:00:00 15,1 14,5 14,8 7 4 11 6 NO 1019,4 3,8 0,6
23.05.2018 08:00:00 14,7 14,2 14,4 7 4 11 6 NO 1018,8 3,3 0,0
23.05.2018 07:00:00 14,2 13,6 13,9 7 4 14 8 NNO 1018,1 3,9 0,1
23.05.2018 06:00:00 13,7 13,0 13,3 7 4 11 6 NNO 1017,6 5 0,3
23.05.2018 05:00:00 14,2 13,0 13,8 7 4 14 8 N 1017,2 7 0,0
23.05.2018 04:00:00 14,6 13,0 13,9 7 4 14 8 NNW 1016,9 10 0,0
23.05.2018 03:00:00 14,8 12,7 14,1 7 4 11 6 NW 1016,5 13 0,0
23.05.2018 02:00:00 15,6 12,5 14,9 7 4 14 8 NNW 1016,6 17 0,0
23.05.2018 01:00:00 15,3 13,5 14,7 7 4 14 8 NW 1016,3 10 0,0
23.05.2018 00:00:00 15,9 13,7 15,2 11 6 14 8 WNW 1016,2 13 0,0
22.05.2018 23:00:00 16,1 13,7 15,1 7 4 11 6 NW 1016,1 21 0,0
22.05.2018 22:00:00 16,6 13,7 15,1 4 2 11 6 WNW 1015,3 14 0,0
22.05.2018 21:00:00 17,0 14,0 16,0 4 2 7 4 N 1015,0 45 0,0
22.05.2018 20:00:00 18,0 12,9 17,3 7 4 14 8 Z 1014,9 47 0,0
22.05.2018 19:00:00 19,1 13,3 18,5 11 6 22 12 OZO 1014,6 34 0,0
22.05.2018 18:00:00 19,9 14,1 19,4 18 10 25 14 N 1013,8 24 0,0
22.05.2018 17:00:00 20,8 14,1 20,2 14 8 29 16 NNW 1013,1 21 0,0
22.05.2018 16:00:00 21,6 14,0 21,8 18 10 36 19 N 1012,9 26 0,0
22.05.2018 15:00:00 23,5 13,9 25,0 14 8 25 14 N 1012,9 24 0,0
22.05.2018 14:00:00 22,7 14,8 24,2 11 6 22 12 N 1013,0 28 0,0
22.05.2018 13:00:00 22,6 14,7 25,0 7 4 18 10 NNO 1013,0 20 0,0
22.05.2018 12:00:00 21,7 15,5 23,7 7 4 22 12 NO 1012,8 21 0,0
22.05.2018 11:00:00 20,6 14,9 22,5 14 8 22 12 NO 1012,8 28 0,0
22.05.2018 10:00:00 19,2 14,0 21,4 11 6 14 8 NNO 1012,9 23 0,0
22.05.2018 09:00:00 17,6 14,4 18,6 7 4 11 6 N 1012,8 14 0,0
22.05.2018 08:00:00 15,3 13,8 15,3 7 4 14 8 N 1012,5 9 0,0
22.05.2018 07:00:00 12,6 12,0 11,7 7 4 11 6 WNW 1012,0 6 0,0
22.05.2018 06:00:00 10,9 10,7 7,6 0 0 7 4 N 1011,5 5 0,0
22.05.2018 05:00:00 11,5 10,8 7,5 4 2 7 4 NO 1011,6 10 0,0
22.05.2018 04:00:00 12,7 11,8 8,8 4 2 7 4 NNO 1011,5 13 0,0
22.05.2018 03:00:00 12,2 12,0 9,5 4 2 7 4 N 1011,8 9 0,0
22.05.2018 02:00:00 12,9 12,2 10,6 4 2 11 6 O 1011,9 10 0,0
22.05.2018 01:00:00 12,8 12,1 11,8 7 4 11 6 ONO 1012,1 13 0,0
22.05.2018 00:00:00 15,5 13,6 13,5 4 2 7 4 N 1012,2 29 0,0
21.05.2018 23:00:00 15,8 13,7 14,9 7 4 18 10 W 1012,5 26 0,1
21.05.2018 22:00:00 15,4 14,6 14,7 4 2 14 8 ZZW 1012,1 14 0,1
21.05.2018 21:00:00 16,3 14,4 15,2 4 2 36 19 WNW 1012,0 30 5,1
21.05.2018 20:00:00 21,7 11,5 20,8 14 8 25 14 NNO 1011,7 44 0,0
21.05.2018 19:00:00 24,0 13,5 24,5 4 2 14 8 ZZO 1011,4 42 0,0
21.05.2018 18:00:00 24,5 12,6 26,3 7 4 18 10 OZO 1011,6 35 0,0
21.05.2018 17:00:00 24,0 12,0 24,2 11 6 32 18 ZZO 1012,2 32 0,0
21.05.2018 16:00:00 23,9 10,7 26,2 14 8 32 18 OZO 1012,7 41 0,0
21.05.2018 15:00:00 22,5 9,7 23,1 18 10 32 18 O 1013,1 37 0,0
21.05.2018 14:00:00 22,1 11,5 24,2 18 10 29 16 NO 1013,6 27 0,0
21.05.2018 13:00:00 21,1 12,6 22,9 14 8 25 14 NO 1014,4 32 0,0
21.05.2018 12:00:00 17,9 14,3 18,4 7 4 14 8 NNO 1015,0 18 0,0
21.05.2018 11:00:00 16,1 14,0 16,2 7 4 18 10 NO 1015,5 12 0,0
21.05.2018 10:00:00 15,0 13,3 14,9 11 6 14 8 NO 1015,7 9 0,1
21.05.2018 09:00:00 14,4 13,1 14,2 11 6 18 10 ONO 1016,4 7 0,3
21.05.2018 08:00:00 13,4 12,9 13,2 4 2 11 6 O 1016,5 2,7 0,1
21.05.2018 07:00:00 12,6 12,2 12,2 4 2 11 6 NO 1016,8 3,6 0,0
21.05.2018 06:00:00 11,6 11,5 10,2 4 2 11 6 NO 1017,0 4,9 0,0
21.05.2018 05:00:00 10,6 10,5 7,7 4 2 7 4 N 1017,3 0,6 0,0
21.05.2018 04:00:00 10,5 10,4 6,2 0 0 4 2 N 1017,8 0,6 0,0
21.05.2018 03:00:00 11,2 11,0 8,5 4 2 7 4 N 1018,2 4,6 0,0
21.05.2018 02:00:00 13,3 12,5 12,4 7 4 14 8 ZO 1018,9 14 0,0
21.05.2018 01:00:00 12,1 11,5 9,4 4 2 7 4 O 1019,1 5 0,0
21.05.2018 00:00:00 14,4 13,3 13,9 7 4 14 8 NW 1019,0 7 0,2
20.05.2018 23:00:00 14,0 12,4 12,2 4 2 11 6 NO 1020,2 7 0,0
20.05.2018 22:00:00 16,0 13,3 14,5 4 2 22 12 WZW 1019,9 11 0,0
20.05.2018 21:00:00 17,5 11,4 16,8 14 8 25 14 N 1018,9 15 0,0
20.05.2018 20:00:00 18,6 11,5 18,4 14 8 32 18 N 1019,0 17 0,0
20.05.2018 19:00:00 19,9 11,5 20,3 25 14 36 19 N 1018,8 14 0,0
20.05.2018 18:00:00 22,1 12,3 23,3 22 12 32 18 NW 1019,1 14 0,0
20.05.2018 17:00:00 23,2 8,3 24,8 11 6 22 12 NNW 1019,8 21 0,0
20.05.2018 16:00:00 22,0 9,8 24,4 11 6 29 16 NNW 1020,7 16 0,0
20.05.2018 15:00:00 20,8 8,7 21,8 14 8 29 16 N 1021,5 16 0,0
20.05.2018 14:00:00 19,5 11,4 21,5 11 6 25 14 NO 1022,1 13 0,0
20.05.2018 13:00:00 19,0 12,1 21,2 14 8 29 16 NO 1022,7 12 0,0
20.05.2018 12:00:00 16,9 11,0 19,7 14 8 22 12 N 1023,3 12 0,0
20.05.2018 11:00:00 15,7 11,5 18,6 11 6 22 12 N 1023,6 9 0,0
20.05.2018 10:00:00 14,1 10,7 16,6 11 6 18 10 NNO 1023,6 8 0,0
20.05.2018 09:00:00 12,5 10,4 13,2 11 6 18 10 ONO 1023,6 6 0,0
20.05.2018 08:00:00 10,9 10,6 11,0 11 6 18 10 NO 1023,3 2,4 0,0
20.05.2018 07:00:00 10,2 9,9 10,1 11 6 18 10 NO 1023,4 1,6 0,0
20.05.2018 06:00:00 9,9 9,6 9,8 11 6 22 12 NO 1023,4 1,7 0,0
20.05.2018 05:00:00 9,8 9,6 9,5 7 4 14 8 NNO 1023,4 1,5 0,0
20.05.2018 04:00:00 8,9 8,7 7,3 7 4 11 6 N 1023,5 1,5 0,0
20.05.2018 03:00:00 5,9 5,7 0,6 4 2 7 4 NNW 1023,5 0,1 0,0
20.05.2018 02:00:00 6,7 6,5 0,6 4 2 4 2 NNO 1023,6 0,3 0,0
20.05.2018 01:00:00 7,5 7,4 1,7 4 2 7 4 N 1023,8 1,3 0,0
20.05.2018 00:00:00 8,0 7,0 4,9 4 2 7 4 N 1023,8 9 0,0
19.05.2018 23:00:00 10,7 8,7 9,2 4 2 11 6 NNW 1023,7 15 0,0
19.05.2018 22:00:00 11,4 9,0 11,0 7 4 11 6 N 1023,5 17 0,0
19.05.2018 21:00:00 11,7 9,1 11,4 7 4 14 8 N 1023,1 16 0,0
19.05.2018 20:00:00 12,2 9,5 12,3 11 6 14 8 NNO 1023,1 17 0,0
19.05.2018 19:00:00 12,0 9,3 12,2 11 6 18 10 NNO 1023,2 14 0,0
19.05.2018 18:00:00 11,6 9,5 11,9 11 6 14 8 N 1023,6 10 0,0
19.05.2018 17:00:00 11,7 9,1 12,2 11 6 22 12 N 1024,0 15 0,0
19.05.2018 16:00:00 11,6 8,5 12,3 11 6 18 10 N 1024,3 14 0,0
19.05.2018 15:00:00 11,6 8,4 12,6 11 6 18 10 NNO 1024,4 17 0,0
19.05.2018 14:00:00 11,6 8,2 12,8 7 4 14 8 NNO 1024,5 20 0,0
19.05.2018 13:00:00 10,9 7,7 11,4 11 6 14 8 N 1024,6 18 0,0

tt = temperatuur
td = dauwpunt
tt 5cm = temperatuur 5cm
ff = windsnelheid
fx = windstoten
dd = windrichting
ppp = luchtdruk
vv = zicht
rr = neerslag

Weerstations in de omgeving